Satellite: NANOSALD
Catalog number: 37361
Epoch time:      11129.34459384
Element set:    0181
Inclination:      071.9716 deg
RA of node:       122.3227 deg
Eccentricity:    0.0038272
Arg of perigee:   269.3119 deg
Mean anomaly:     090.3892 deg
Mean motion:   14.92615404 rev/day
Decay rate:     4.6521e-04 rev/day^2
Epoch rev:           01631
Checksum:              290

Satellite: FO-70
Catalog number: 37380
Epoch time:      11132.43064796
Element set:    0163
Inclination:      071.9718 deg
RA of node:       118.1706 deg
Eccentricity:    0.0017926
Arg of perigee:   339.7206 deg
Mean anomaly:     020.3258 deg
Mean motion:   14.76343922 rev/day
Decay rate:       3.81e-06 rev/day^2
Epoch rev:           02558
Checksum:              300

/EX
SB KEPS @ AMSAT  $ORB11133.W
Orbital Elements  11133.WEATHER

HR AMSAT ORBITAL ELEMENTS FOR WEATHER SATELLITES
FROM WA5QGD FORT WORTH,TX May 13, 2011
Send Subscribe/unsubscribe to KEPS at http://www.amsat.org/mailman/listinfo/kep
BID: ORB11133.W
TO ALL RADIO AMATEURS BT

Satellite: NOAA-10
Catalog number: 16969
Epoch time:      11131.97110293
Element set:    0498
Inclination:      098.6206 deg
RA of node:       162.2458 deg
Eccentricity:    0.0012020
Arg of perigee:   335.6884 deg
Mean anomaly:     024.3730 deg
Mean motion:   14.27459301 rev/day
Decay rate:        4.0e-08 rev/day^2
Epoch rev:           28248
Checksum:              288

Satellite: NOAA-11
Catalog number: 19531
Epoch time:      11131.85286961
Element set:    0500
Inclination:      098.7509 deg
RA of node:       220.0023 deg
Eccentricity:    0.0010479
Arg of perigee:   294.2902 deg
Mean anomaly:     065.7169 deg
Mean motion:   14.14915912 rev/day
Decay rate:       2.24e-06 rev/day^2
Epoch rev:           16761
Checksum:              284

Satellite: NOAA-12
Catalog number: 21263
Epoch time:      11131.94388785
Element set:    0998
Inclination:      098.7506 deg
RA of node:       149.8507 deg
Eccentricity:    0.0011586
Arg of perigee:   295.3075 deg
Mean anomaly:     064.6904 deg
Mean motion:   14.25709572 rev/day
Decay rate:       1.04e-06 rev/day^2
Epoch rev:           03924
Checksum:              327

Satellite: MET-3/5
Catalog number: 21655
Epoch time:      11132.80850528
Element set:     108
Inclination:      082.5560 deg
RA of node:       075.7685 deg
Eccentricity:    0.0012176
Arg of perigee:   244.1155 deg
Mean anomaly:     115.8752 deg
Mean motion:   13.17028757 rev/day
Decay rate:        5.1e-07 rev/day^2
Epoch rev:           94906
Checksum:              298

Satellite: MET-2/21
Catalog number: 22782
Epoch time:      11131.73839177
Element set:      92
Inclination:      082.5492 deg
RA of node:       351.8005 deg
Eccentricity:    0.0021761
Arg of perigee:   197.7995 deg
Mean anomaly:     162.2384 deg
Mean motion:   13.83657389 rev/day
Decay rate:       -6.1e-07 rev/day^2
Epoch rev:           89351
Checksum:              329

Satellite: OKEAN-4
Catalog number: 23317
Epoch time:      11132.87790592
Element set:     552
Inclination:      082.5409 deg
RA of node:       046.1077 deg
Eccentricity:    0.0020328
Arg of perigee:   233.2609 deg
Mean anomaly:     126.6738 deg
Mean motion:   14.83058120 rev/day
Decay rate:       6.44e-06 rev/day^2
Epoch rev:           89531
Checksum:              295

Satellite: NOAA-14
Catalog number: 23455
Epoch time:      11131.94307686
Element set:    0488
Inclination:      098.8529 deg
RA of node:       214.9376 deg
Eccentricity:    0.0010004
Arg of perigee:   027.1883 deg
Mean anomaly:     332.9806 deg
Mean motion:   14.13817793 rev/day
Decay rate:        1.0e-07 rev/day^2
Epoch rev:           84395
Checksum:              317

Satellite: NOAA-15
Catalog number: 25338
Epoch time:      11131.79150608
Element set:    0811
Inclination:      098.6518 deg
RA of node:       118.4370 deg
Eccentricity:    0.0010275
Arg of perigee:   193.5564 deg
Mean anomaly:     166.5350 deg
Mean motion:   14.24911099 rev/day
Decay rate:       1.29e-06 rev/day^2
Epoch rev:           67554
Checksum:              304

Satellite: RESURS
Catalog number: 25394
Epoch time:      11132.55917945
Element set:     793
Inclination:      098.2998 deg
RA of node:       137.5452 deg
Eccentricity:    0.0001773
Arg of perigee:   016.8759 deg
Mean anomaly:     343.2477 deg
Mean motion:   14.24232584 rev/day
Decay rate:        3.0e-08 rev/day^2
Epoch rev:           66723
Checksum:              324

Satellite: FENGYUN1
Catalog number: 25730
Epoch time:      11131.94551681
Element set:    0336
Inclination:      098.8179 deg
RA of node:       093.9418 deg
Eccentricity:    0.0025794
Arg of perigee:   052.2907 deg
Mean anomaly:     308.0591 deg
Mean motion:   14.08608974 rev/day
Decay rate:       3.49e-06 rev/day^2
Epoch rev:           61796
Checksum:              331

Satellite: OKEAN-0
Catalog number: 25860
Epoch time:      11131.97446036
Element set:    0308
Inclination:      097.8810 deg
RA of node:       099.4239 deg
Eccentricity:    0.0001875
Arg of perigee:   084.3905 deg
Mean anomaly:     275.7516 deg
Mean motion:   14.73776639 rev/day
Decay rate:       3.49e-06 rev/day^2
Epoch rev:           63532
Checksum:              328

